User: anonymous   Login
Location: Unspecified
(0.0000°N, 0.0000°E)
Time: 13:28:57
(UTC+00:00)
Language:

A-11 Canister half - Orbit

View from above orbital plane
View from above orbital plane
View from above satellite
View from above satellite

Ground track
Ground track

The orbit data is extracted from the following two-line orbital elements,

1    51U 60009C   19051.98605780 -.00000141  00000-0 -54728-3 0  9997
2    51  47.2141  40.0453 0105287 169.4152 190.8884 12.18271067605266
Epoch (UTC): 20 February 2019 23:39:55
Eccentricity: 0.0105287
inclination: 47.2141°
perigee height: 1516 km
apogee height: 1684 km
right ascension of ascending node: 40.0453°
argument of perigee: 169.4152°
revolutions per day: 12.18271067
mean anomaly at epoch: 190.8884°
orbit number at epoch: 60526

The dashed part of the orbit path shows where the satellite is in the earth's shadow,  

DLR